This demonstration page uses our WeatherBlox Daily Observations layout. Learn more.

Left ArrowRight Arrow

Hourly Observations for May 29, 2016

Temp ( °F °C ) Dew Point ( °F °C ) Humidity (%) Winds ( mph kmh ) Pressure ( in mb ) Visibility ( mi km ) Precip ( " mm )
12:53 am 00:53 Cloudy 67 19.4 63 17.2 87 87 N N/A 30.08 1019 10 16 N/A
1:53 am 01:53 Mostly Cloudy 65 18.3 63 17.2 93 93 N N/A 30.09 1019 9 14 N/A
2:53 am 02:53 Clear 67 19.4 64 17.8 91 91 N N/A 30.09 1019 9 14 N/A
3:53 am 03:53 Clear 67 19.4 64 17.8 91 91 N N/A 30.08 1019 10 16 N/A
4:53 am 04:53 Mostly Cloudy 68 20 64 17.8 87 87 E 3 6 30.08 1019 10 16 N/A
5:53 am 05:53 Cloudy with Light Rain 67 19.4 65 18.3 93 93 N N/A 30.09 1019 9 14 N/A
6:53 am 06:53 Partly Cloudy with Mist and Fog 67 19.4 65 18.3 93 93 N N/A 30.10 1019 6 10 N/A
7:53 am 07:53 Partly Cloudy 70 21.1 67 19.4 90 90 N N/A 30.10 1019 7 11 N/A
8:53 am 08:53 Sunny 72 22.2 66 18.9 82 82 N N/A 30.10 1019 9 14 N/A
9:53 am 09:53 Sunny 76 24.4 66 18.9 72 72 undefined N/A 30.10 1019 10 16 N/A
10:53 am 10:53 Sunny 76 24.4 67 19.4 74 74 VRB 3 6 30.10 1019 10 16 N/A
11:53 am 11:53 Sunny 82 27.8 68 20 63 63 VRB 6 9 30.09 1019 10 16 N/A
12:53 pm 12:53 Sunny 85 29.4 68 20 57 57 N N/A 30.08 1019 10 16 N/A
1:53 pm 13:53 Mostly Cloudy 86 30 67 19.4 53 53 SW 7 11 30.06 1018 10 16 N/A
2:53 pm 14:53 Partly Cloudy 85 29.4 65 18.3 51 51 SW 8 13 30.05 1018 10 16 N/A
3:53 pm 15:53 Partly Cloudy 88 31.1 67 19.4 50 50 SW 12 19 30.02 1017 10 16 N/A
4:53 pm 16:53 Mostly Sunny 88 31.1 65 18.3 46 46 WSW 8 13 30.00 1016 10 16 N/A
5:53 pm 17:53 Sunny 87 30.6 65 18.3 48 48 SW 10 17 29.98 1015 10 16 N/A
6:53 pm 18:53 Mostly Sunny 85 29.4 65 18.3 51 51 SW 10 17 29.98 1015 10 16 N/A
7:53 pm 19:53 Sunny 84 28.9 66 18.9 55 55 VRB 7 11 29.98 1015 10 16 N/A
8:53 pm 20:53 Sunny 77 25 65 18.3 66 66 SSW 3 6 29.97 1015 10 16 N/A
9:53 pm 21:53 Mostly Cloudy 75 23.9 65 18.3 71 71 N N/A 29.99 1016 10 16 N/A
10:53 pm 22:53 Mostly Clear 70 21.1 65 18.3 84 84 N N/A 30.00 1016 10 16 N/A
11:53 pm 23:53 Clear 71 21.7 64 17.8 79 79 WNW 6 9 29.99 1016 10 16 N/A

Powered by AerisWeather